GW5747 Weather Reports


time (UTC)temp
F
wind
direction
speed
knots
gust
knots
rain 1hr
in
rain 24hr
in
rain mn
in
humidity
%
barometer
mb
20260505071201 53 137 0.0 0.0 0.00 0.00 0.00 87 1000.4
20260505070658 53 141 0.0 0.0 0.00 0.00 0.00 87 1000.4
20260505070154 53 142 0.0 0.0 0.00 0.00 0.00 87 1000.5
20260505065650 53 146 0.0 0.0 0.00 0.00 0.00 86 1000.4
20260505065147 53 143 0.0 0.0 0.00 0.00 0.00 86 1000.3
20260505064644 53 143 0.0 0.0 0.00 0.00 0.00 85 1000.3
20260505064142 53 143 0.0 0.0 0.00 0.00 0.00 85 1000.4
20260505063640 53 143 0.0 0.0 0.00 0.00 0.00 85 1000.4
20260505063136 54 143 0.0 0.0 0.00 0.00 0.00 85 1000.2
20260505062632 54 143 0.0 0.0 0.00 0.00 0.00 84 1000.1
20260505062129 54 143 0.0 0.0 0.00 0.00 0.00 84 1000.3
20260505061626 54 145 0.0 0.0 0.00 0.00 0.00 84 1000.4
20260505061125 54 144 0.0 0.0 0.00 0.00 0.00 84 1000.4
20260505060622 54 144 0.0 0.0 0.00 0.00 0.00 83 1000.3
20260505060119 55 144 0.0 0.0 0.00 0.00 0.00 83 1000.2
20260505055614 55 145 0.0 0.0 0.00 0.00 0.00 82 1000.5
20260505055110 55 140 0.0 0.0 0.00 0.00 0.00 82 1000.4
20260505054608 55 144 0.0 0.0 0.00 0.00 0.00 82 1000.5
20260505054106 55 144 0.0 0.0 0.00 0.00 0.00 82 1000.5
20260505053603 55 144 0.0 0.0 0.00 0.00 0.00 81 1000.5
20260505053059 56 144 0.0 0.0 0.00 0.00 0.00 80 1000.3
20260505052556 56 143 0.0 0.0 0.00 0.00 0.00 80 1000.4
20260505052054 56 143 0.0 0.0 0.00 0.00 0.00 79 1000.6
20260505051550 56 143 0.0 0.0 0.00 0.00 0.00 79 1000.5
20260505051049 56 144 0.0 0.0 0.00 0.00 0.00 79 1000.6
20260505050546 56 146 0.0 0.0 0.00 0.00 0.00 79 1000.6
20260505041514 57 146 0.0 0.0 0.00 0.00 0.00 77 1000.5
20260505041012 57 144 0.0 0.0 0.00 0.00 0.00 76 1000.5
20260505040509 57 144 0.0 0.0 0.00 0.00 0.00 76 1000.4
20260505040006 57 141 0.0 0.0 0.00 0.00 0.00 76 1000.2
20260505035501 57 144 0.0 0.0 0.00 0.00 0.00 76 1000.4
20260505034959 58 144 0.0 0.0 0.00 0.00 0.00 75 1000.4
20260505034455 58 144 0.0 0.0 0.00 0.00 0.00 75 1000.4
20260505033952 58 144 0.0 0.0 0.00 0.00 0.00 74 1000.4
20260505033449 58 144 0.0 0.0 0.00 0.00 0.00 73 1000.4
20260505032947 58 143 0.0 0.0 0.00 0.00 0.00 72 1000.5
20260505032444 59 144 0.0 0.0 0.00 0.00 0.00 72 1000.1
20260505031940 59 145 0.0 0.0 0.00 0.00 0.00 71 1000.4
20260505031438 59 145 0.0 0.0 0.00 0.00 0.00 71 1000.4
20260505030935 59 145 0.0 0.0 0.00 0.00 0.00 70 1000.4
20260505030430 59 145 0.0 0.0 0.00 0.00 0.00 70 1000.4
20260505025926 59 145 0.0 0.0 0.00 0.00 0.00 70 1000.2
20260505025423 59 143 0.0 0.0 0.00 0.00 0.00 70 1000.3
20260505024922 60 143 0.0 0.0 0.00 0.00 0.00 69 1000.4
20260505024419 60 144 0.0 0.0 0.00 0.00 0.00 69 1000.2
20260505023916 60 144 0.0 0.0 0.00 0.00 0.00 69 1000.3
20260505023413 60 143 0.0 0.0 0.00 0.00 0.00 68 1000.2
20260505022910 60 147 0.0 0.0 0.00 0.00 0.00 68 1000.5
20260505022408 60 143 0.0 0.0 0.00 0.00 0.00 67 1000.4
20260505021905 61 144 0.0 0.0 0.00 0.00 0.00 66 1000.2
20260505021401 61 144 0.0 0.0 0.00 0.00 0.00 65 1000.6
20260505020857 61 144 0.0 0.0 0.00 0.00 0.00 65 1000.3
20260505020353 62 144 0.0 0.0 0.00 0.00 0.00 64 1000.0
20260505015850 62 144 0.0 0.0 0.00 0.00 0.00 63 1000.1
20260505015347 62 144 0.0 0.0 0.00 0.00 0.00 62 1000.0
20260505014844 63 145 0.0 0.0 0.00 0.00 0.00 62 1000.0
20260505014341 63 144 0.0 0.0 0.00 0.00 0.00 61 1000.0
20260505013838 64 144 0.0 0.0 0.00 0.00 0.00 60 999.9
20260505013335 64 144 0.0 0.0 0.00 0.00 0.00 59 999.9
20260505012833 65 144 0.0 0.0 0.00 0.00 0.00 59 999.8
20260505012331 65 146 0.0 0.0 0.00 0.00 0.00 57 1000.0
20260505011826 65 147 0.0 0.0 0.00 0.00 0.00 57 999.6
20260505011323 66 146 0.0 0.0 0.00 0.00 0.00 56 999.5
20260505010819 66 146 0.0 0.0 0.00 0.00 0.00 57 999.6
20260505010315 66 145 0.0 0.0 0.00 0.00 0.00 56 999.4
20260505005812 66 150 0.0 0.0 0.00 0.00 0.00 55 999.6
20260505005309 67 146 0.0 0.0 0.00 0.00 0.00 53 999.3
20260505004806 68 146 0.0 0.0 0.00 0.00 0.00 53 999.4
20260505004302 68 146 0.0 0.0 0.00 0.00 0.00 51 999.5
20260505003800 69 146 0.0 0.0 0.00 0.00 0.00 50 999.3
20260505003257 70 149 0.0 0.0 0.00 0.00 0.00 47 999.3
20260505002753 70 155 0.0 0.0 0.00 0.00 0.00 46 999.5
20260505002251 71 142 0.0 0.0 0.00 0.00 0.00 48 999.5
20260505001748 71 182 0.0 0.9 0.00 0.00 0.00 44 999.3
20260505001246 71 142 0.0 0.0 0.00 0.00 0.00 46 999.4
20260505000742 72 146 0.0 0.0 0.00 0.00 0.00 43 999.3
20260505000240 72 152 0.0 0.9 0.00 0.00 0.00 42 999.2
20260504235736 72 160 0.9 0.9 0.00 0.00 0.00 42 999.3
20260504235233 72 159 0.0 0.0 0.00 0.00 0.00 42 999.2
20260504234730 72 141 0.0 0.9 0.00 0.00 0.00 42 999.3
20260504234227 71 153 0.0 0.9 0.00 0.00 0.00 41 999.1
20260504233724 71 163 0.0 0.9 0.00 0.00 0.00 42 999.1
20260504233219 72 146 0.0 0.0 0.00 0.00 0.00 45 999.2
20260504232717 72 161 0.0 0.9 0.00 0.00 0.00 42 999.3
20260504232214 73 154 0.0 0.0 0.00 0.00 0.00 41 999.4
20260504231710 73 148 0.0 0.0 0.00 0.00 0.00 40 999.0
20260504231207 73 146 0.0 0.9 0.00 0.00 0.00 39 998.9
20260504230703 73 152 0.0 0.9 0.00 0.00 0.00 39 999.0
20260504230202 74 142 0.0 0.0 0.00 0.00 0.00 40 999.0
20260504225700 74 173 0.9 0.9 0.00 0.00 0.00 39 998.8
20260504225155 74 171 0.9 0.9 0.00 0.00 0.00 38 999.0
20260504224653 74 172 0.0 0.9 0.00 0.00 0.00 39 999.2
20260504224149 74 118 0.9 0.9 0.00 0.00 0.00 39 999.3
20260504223647 74 153 0.0 0.0 0.00 0.00 0.00 39 998.9
20260504223142 73 185 0.0 0.9 0.00 0.00 0.00 39 999.1
20260504222639 74 179 0.9 0.9 0.00 0.00 0.00 38 998.9
20260504222136 74 150 0.0 0.9 0.00 0.00 0.00 39 998.9
20260504221634 74 161 0.0 0.9 0.00 0.00 0.00 38 999.0
20260504221131 74 144 0.0 0.0 0.00 0.00 0.00 39 999.0
20260504220627 75 151 0.9 1.7 0.00 0.00 0.00 38 999.0
20260504220125 75 137 0.0 0.0 0.00 0.00 0.00 39 999.0
20260504215621 75 182 1.7 1.7 0.00 0.00 0.00 36 999.0
20260504215118 75 158 0.9 0.9 0.00 0.00 0.00 37 998.9
20260504214614 75 157 0.0 0.9 0.00 0.00 0.00 36 998.9
20260504214110 75 108 0.0 0.0 0.00 0.00 0.00 36 999.0
20260504213607 75 147 0.0 0.0 0.00 0.00 0.00 38 999.1
20260504213104 75 154 0.9 0.9 0.00 0.00 0.00 35 998.9
20260504212600 75 179 0.0 0.9 0.00 0.00 0.00 35 998.9
20260504212057 75 146 0.9 0.9 0.00 0.00 0.00 34 998.9
20260504211554 75 146 0.9 0.9 0.00 0.00 0.00 35 999.1
20260504211051 75 147 0.9 0.9 0.00 0.00 0.00 36 999.0
20260504210548 74 143 1.7 1.7 0.00 0.00 0.00 37 998.9
20260504210045 74 146 0.9 0.9 0.00 0.00 0.00 38 999.2
20260504205543 75 146 0.0 0.9 0.00 0.00 0.00 37 998.8
20260504205040 75 176 0.9 0.9 0.00 0.00 0.00 37 998.9
20260504204538 75 143 0.0 0.9 0.00 0.00 0.00 36 999.1
20260504204037 75 119 1.7 2.6 0.00 0.00 0.00 35 999.0
20260504203535 75 160 0.9 0.9 0.00 0.00 0.00 36 999.3
20260504203032 75 144 0.0 0.9 0.00 0.00 0.00 36 999.2
20260504202527 75 180 0.0 0.9 0.00 0.00 0.00 35 999.2
20260504202024 75 111 0.9 1.7 0.00 0.00 0.00 35 999.1
20260504201521 75 151 0.9 0.9 0.00 0.00 0.00 36 999.5
20260504201019 75 174 0.9 0.9 0.00 0.00 0.00 37 999.4
20260504200515 75 159 0.0 0.9 0.00 0.00 0.00 35 999.7
20260504200012 75 170 0.0 0.0 0.00 0.00 0.00 42 999.7
20260504195508 75 173 0.0 0.0 0.00 0.00 0.00 38 999.5
20260504195005 75 153 0.0 0.9 0.00 0.00 0.00 37 999.7
20260504194501 75 154 0.0 0.9 0.00 0.00 0.00 36 999.8
20260504193957 75 156 0.0 0.0 0.00 0.00 0.00 36 999.7
20260504193454 75 169 1.7 1.7 0.00 0.00 0.00 35 1000.0
20260504192953 75 160 0.9 0.9 0.00 0.00 0.00 38 1000.0
20260504192449 75 149 1.7 1.7 0.00 0.00 0.00 35 1000.1
20260504191949 75 164 0.9 0.9 0.00 0.00 0.00 38 1000.2
20260504191446 75 153 0.9 0.9 0.00 0.00 0.00 37 1000.6
20260504190941 75 261 0.9 1.7 0.00 0.00 0.00 38 1000.4
20260504190437 75 148 1.7 1.7 0.00 0.00 0.00 35 1000.7
20260504185934 75 164 0.9 0.9 0.00 0.00 0.00 38 1000.7
20260504185432 75 143 0.9 0.9 0.00 0.00 0.00 38 1000.6
20260504184927 75 142 0.0 0.0 0.00 0.00 0.00 38 1000.9
20260504184423 74 136 0.0 0.9 0.00 0.00 0.00 37 1001.0
20260504183919 74 141 0.0 0.9 0.00 0.00 0.00 36 1000.9
20260504183417 74 145 0.9 0.9 0.00 0.00 0.00 38 1001.2
20260504182915 74 147 0.0 0.0 0.00 0.00 0.00 37 1001.3
20260504182411 74 144 0.0 0.0 0.00 0.00 0.00 40 1001.4
20260504181908 74 192 0.9 0.9 0.00 0.00 0.00 38 1001.5
20260504181405 74 148 0.0 0.9 0.00 0.00 0.00 36 1001.1
20260504180904 73 142 0.0 0.9 0.00 0.00 0.00 38 1001.4
20260504180402 73 156 0.0 0.9 0.00 0.00 0.00 36 1001.3
20260504175900 73 129 0.9 0.9 0.00 0.00 0.00 43 1001.6
20260504175356 73 158 0.9 1.7 0.00 0.00 0.00 36 1001.5
20260504174855 73 195 0.9 1.7 0.00 0.00 0.00 37 1001.4
20260504174352 73 155 0.0 0.0 0.00 0.00 0.00 37 1001.7
20260504173849 73 163 0.9 1.7 0.00 0.00 0.00 38 1001.9
20260504173345 73 160 0.0 0.0 0.00 0.00 0.00 37 1001.7
20260504172843 73 160 0.0 0.0 0.00 0.00 0.00 37 1001.8
20260504172339 73 164 0.0 0.9 0.00 0.00 0.00 36 1001.9
20260504171835 73 189 0.9 1.7 0.00 0.00 0.00 36 1001.8
20260504171332 73 127 0.9 0.9 0.00 0.00 0.00 40 1002.1
20260504170830 73 150 0.9 0.9 0.00 0.00 0.00 36 1002.3
20260504170326 72 165 0.0 0.9 0.00 0.00 0.00 37 1002.2
20260504160245 71 148 0.9 0.9 0.00 0.00 0.00 37 1002.8
20260504150710 69 176 0.9 1.7 0.00 0.00 0.00 39 1003.5
20260504150207 70 144 0.0 0.9 0.00 0.00 0.00 40 1003.2
20260504141136 65 151 0.9 0.9 0.00 0.00 0.00 42 1003.7
20260504140633 66 148 0.0 0.9 0.00 0.00 0.00 42 1003.7
20260504140128 65 148 0.0 0.0 0.00 0.00 0.00 42 1003.8
20260504130556 62 148 0.9 1.7 0.00 0.00 0.00 49 1004.2
20260504110444 46 145 0.0 0.0 0.00 0.00 0.00 84 1004.6
20260504100407 47 146 0.0 0.0 0.00 0.00 0.00 81 1004.4
20260504081800 46 147 0.0 0.0 0.00 0.00 0.00 83 1004.6
20260504081256 46 144 0.0 0.0 0.00 0.00 0.00 83 1004.7
20260504080753 46 144 0.0 0.0 0.00 0.00 0.00 84 1004.7
20260504080249 46 144 0.0 0.0 0.00 0.00 0.00 83 1004.7